Squaw Valley, USA 16 day weather forecast

Slopes altitude range 1890 m - 2760m

Number of lifts: 27 Pistes: 100km

In some cases the lift and piste totals shown are for the ski domain (e.g. Three Valleys) rather than individual resort (e.g. Courchevel)

Overview

The 16 day weather forecast is fully updated 4 times every day.

    • Wed 19 DEC 2018
    • Wed 19
    • 0C 1C
    • Thu 20 DEC 2018
    • Thu 20
    • 0C 1C
    • Fri 21 DEC 2018
    • Fri 21
    • 0C 2C
    • Sat 22 DEC 2018
    • Sat 22
    • -1C 0C
    • Sun 23 DEC 2018
    • Sun 23
    • -1C 0C
    • Mon 24 DEC 2018
    • Mon 24
    • 1C 2C
    • Tue 25 DEC 2018
    • Tue 25
    • -4C -3C
    • Wed 26 DEC 2018
    • Wed 26
    • -7C -4C
    • Thu 27 DEC 2018
    • Thu 27
    • -8C -7C
    • Fri 28 DEC 2018
    • Fri 28
    • -11C -9C
    • Sat 29 DEC 2018
    • Sat 29
    • -13C -1C
    • Sun 30 DEC 2018
    • Sun 30
    • -6C 0C
    • Mon 31 DEC 2018
    • Mon 31
    • -6C -2C
    • Tue 01 JAN 2019
    • Tue 01
    • -2C 1C
    • Wed 02 JAN 2019
    • Wed 02
    • -6C 1C
    • Thu 03 JAN 2019
    • Thu 03
    • -2C 0C

Date:

Time Type 0°C level Temp Chill Snow Cloud Speed Gust Dir Press
3:00 2267m -1°C -1_9 0cm 0% 9mph 10mph 1027mB
6:00 2324m -1°C -1_8 0cm 16% 8mph 9mph 1027mB
9:00 2789m 1°C 1_8 0cm 31% 8mph 9mph 1028mB
12:00 2700m 1°C 1_6 0cm 43% 6mph 7mph 1028mB
15:00 2696m 1°C 1_5 0cm 61% 5mph 6mph 1028mB
18:00 3685m 5°C 5_4 0cm 57% 4mph 4mph 1027mB
21:00 3716m 5°C 5_2 0cm 56% 2mph 3mph 1024mB
0:00 3765m 4°C 4_3 0cm 61% 3mph 4mph 1023mB
3:00 3733m 2°C 2_6 0cm 72% 6mph 7mph 1023mB
6:00 2747m 1°C 1_8 0cm 82% 8mph 9mph 1024mB
9:00 2689m 0°C 0_9 0cm 100% 9mph 10mph 1023mB
12:00 2712m 1°C 1_9 0cm 96% 9mph 10mph 1023mB
15:00 2650m 0°C 0_9 0cm 0% 9mph 10mph 1023mB
18:00 3505m 5°C 5_9 0cm 0% 9mph 19mph 1022mB
21:00 3478m 5°C 5_11 0cm 18% 11mph 21mph 1019mB
0:00 3433m 3°C 3_9 0cm 43% 9mph 14mph 1016mB
3:00 3029m 2°C 2_14 0cm 83% 14mph 38mph 1017mB
6:00 2594m 2°C 2_19 0cm 87% 19mph 39mph 1016mB
9:00 2177m 0°C 0_16 0cm 82% 16mph 38mph 1016mB
12:00 2329m 2°C 2_17 1cm 83% 17mph 39mph 1018mB
15:00 2324m 2°C 2_9 0cm 58% 9mph 23mph 1020mB
18:00 2322m 3°C 3_1 0cm 64% 1mph 3mph 1021mB
21:00 2463m 3°C 3_2 1cm 65% 2mph 5mph 1018mB
0:00 2480m 2°C 2_1 1cm 64% 1mph 2mph 1017mB
3:00 2364m 1°C 1_3 1cm 91% 3mph 4mph 1018mB
6:00 2140m 0°C 0_5 0cm 87% 5mph 6mph 1019mB
9:00 1983m -1°C -1_7 0cm 91% 7mph 9mph 1019mB
12:00 2005m 0°C 0_4 0cm 93% 4mph 5mph 1020mB
15:00 1933m -2°C -2_2 0cm 63% 2mph 2mph 1022mB
18:00 2367m 2°C 2_2 0cm 31% 2mph 3mph 1022mB
21:00 2569m 2°C 2_4 0cm 0% 4mph 5mph 1020mB
0:00 2540m 2°C 2_4 0cm 13% 4mph 4mph 1021mB
3:00 2303m 0°C 0_3 0cm 90% 3mph 4mph 1023mB
6:00 2360m 0°C 0_6 0cm 87% 6mph 7mph 1024mB
9:00 2281m 0°C 0_8 0cm 60% 8mph 8mph 1024mB
12:00 2268m 0°C 0_8 0cm 66% 8mph 9mph 1024mB
15:00 2384m 1°C 1_8 0cm 93% 8mph 11mph 1024mB
18:00 2652m 3°C 3_9 0cm 96% 9mph 15mph 1024mB
21:00 2566m 3°C 3_10 0cm 98% 10mph 15mph 1021mB
0:00 2413m 1°C 1_9 1cm 96% 9mph 14mph 1021mB
3:00 2426m 1°C 1_9 1cm 100% 9mph 15mph 1022mB
6:00 2454m 1°C 1_10 1cm 99% 10mph 16mph 1023mB
9:00 2489m 1°C 1_9 0cm 70% 9mph 15mph 1022mB
12:00 2470m 2°C 2_8 1cm 82% 8mph 13mph 1020mB
15:00 2412m 2°C 2_13 0cm 100% 13mph 32mph 1017mB
18:00 2334m 2°C 2_17 6cm 98% 17mph 43mph 1013mB
21:00 2299m 1°C 1_37 8cm 99% 37mph 60mph 1009mB
0:00 1467m -4°C -4_22 14cm 96% 22mph 35mph 1013mB
3:00 1500m -4°C -4_13 1cm 78% 13mph 27mph 1015mB
6:00 1624m -4°C -4_16 2cm 88% 16mph 30mph 1015mB
9:00 1557m -4°C -4_17 1cm 89% 17mph 28mph 1014mB
12:00 1429m -3°C -3_13 1cm 71% 13mph 23mph 1016mB
15:00 1328m -4°C -4_8 0cm 30% 8mph 16mph 1019mB
18:00 1740m -2°C -2_8 0cm 17% 8mph 20mph 1020mB
21:00 1916m -2°C -2_5 0cm 3% 5mph 8mph 1019mB
0:00 1719m -3°C -3_4 0cm 18% 4mph 5mph 1019mB
3:00 1083m -7°C -7_0 0cm 7% 0mph 1mph 1021mB
6:00 1026m -7°C -7_2 0cm 4% 2mph 2mph 1021mB
9:00 1088m -7°C -7_4 0cm 0% 4mph 5mph 1021mB
12:00 1432m -4°C -4_7 0cm 45% 7mph 8mph 1020mB
15:00 1389m -4°C -4_10 0cm 75% 10mph 11mph 1019mB
18:00 1780m -2°C -2_12 1cm 86% 12mph 24mph 1016mB
21:00 1750m -2°C -2_18 1cm 96% 18mph 35mph 1012mB
0:00 1454m -4°C -4_14 4cm 97% 14mph 22mph 1012mB
3:00 1263m -5°C -5_5 1cm 99% 5mph 8mph 1014mB
6:00 883m -8°C -8_3 1cm 96% 3mph 3mph 1015mB
9:00 925m -8°C -8_5 1cm 86% 5mph 9mph 1016mB
12:00 1004m -7°C -7_5 0cm 65% 5mph 10mph 1017mB
15:00 892m -7°C -7_4 0cm 49% 4mph 4mph 1019mB
18:00 1417m -4°C -4_3 0cm 26% 3mph 5mph 1018mB
21:00 1723m -4°C -4_4 0cm 1% 4mph 6mph 1014mB
0:00 1295m -5°C -5_10 0cm 1% 10mph 15mph 1014mB
3:00 822m -9°C -9_15 0cm 17% 15mph 26mph 1018mB
6:00 722m -9°C -9_18 0cm 26% 18mph 29mph 1019mB
9:00 575m -10°C -10_17 0cm 50% 17mph 29mph 1020mB
12:00 503m -9°C -9_17 0cm 43% 17mph 30mph 1022mB
15:00 496m -10°C -10_17 0cm 53% 17mph 31mph 1023mB
18:00 723m -9°C -9_18 0cm 52% 18mph 30mph 1023mB
Morning 0.15625mm 0 244m -13°C -13_6 0cm 1% 6mph 7mph 1026mB
Afternoon 0.385417mm 0 2036m -1°C -1_2 0cm 39% 2mph 2mph 1024mB
Morning 0.333333mm 0 1314m -6°C -6_6 0cm 79% 6mph 7mph 1026mB
Afternoon 0.015625mm 0 2113m 0°C 0_5 0cm 77% 5mph 8mph 1026mB
Morning 0.0260417mm 0 1382m -5°C -5_5 0cm 82% 5mph 7mph 1024mB
Afternoon 0.229167mm 0 1896m -2°C -2_6 2cm 98% 6mph 10mph 1022mB
Morning 0.0572917mm 0.0625 1836m -3°C -3_7 1cm 96% 7mph 14mph 1022mB
Afternoon 0.00520833mm 0.25 2516m 1°C 1_17 2cm 97% 17mph 45mph 1018mB
Morning 0mm 0.375 1237m -7°C -7_7 3cm 58% 7mph 10mph 1025mB
Afternoon 0mm 0.0625 2455m 1°C 1_15 1cm 100% 15mph 37mph 1018mB
Morning 0mm 0 2302m 0°C 0_18 0cm 100% 18mph 41mph 1014mB
Afternoon 0.00520833mm 1.0625 1936m 0°C 0_15 8cm 90% 15mph 38mph 1009mB

16 day outlook at a glance

Forecast issued: 19/12/2018 04:27:29

Chat

Your comments and questions. In a resort? Let us know what it's like!


Characters left 250

For terms and conditions see Readers Comments on the Cookie and privacy policy page.